RH
97 96 94 88 86 84 83 86 90 90 93 97 95 92 84 80 76 78 78 76 76 72 69 69 66 60 55 45 49 54 47 63 66 56 44 41 46 44 49 78 91 95 98 86
89 86 83 83 81 81 85 87 87 88 92 95 93 86 78 78 77 78 76 77 76 72 73 82 68 64 56 63 62 66 64 68 75 66 59 52 54 48 60 73 86 96 98 80
75 70 66 65 63 63 70 77 79 77 81 80 80 82 75 73 67 67 71 67 74 81 81 77 86 76 62 62 65 71 83 79 78 87 75 68 68 61 61 70 94 85 85 84
63 58 55 55 54 53 52 56 63 64 70 72 71 72 70 72 71 68 68 70 81 85 92 94 96 90 88 74 64 68 82 97 93 84 78 72 69 62 56 60 68 89 84 89
53 52 52 48 45 44 45 53 53 56 59 57 62 64 65 63 57 65 58 76 82 92 98 94 92 95 86 96 84 87 86 92 91 89 72 80 78 56 59 63 63 68 71 70
45 44 41 41 42 40 43 44 47 54 50 50 56 53 54 51 58 63 75 87 93 96 96 96 98 95 86 88 96 94 93 91 90 93 94 88 87 51 65 63 58 57 61 51
43 40 36 34 36 36 41 50 53 58 56 59 56 53 54 58 57 63 54 63 76 73 82 89 87 82 73 82 80 88 86 83 91 90 91 92 57 67 63 63 52 60 56 52
36 33 31 30 28 28 30 34 42 51 52 48 43 58 65 58 56 61 64 63 83 87 86 88 96 83 79 69 70 71 67 77 87 91 80 71 58 60 62 68 56 67 69 64
28 29 27 24 24 26 27 27 38 51 55 35 47 53 53 65 70 75 78 80 77 77 93 96 95 84 79 76 76 58 82 87 92 90 93 81 65 62 64 64 61 54 57 61
19 24 23 22 23 25 29 31 41 50 49 24 45 49 54 61 73 85 79 76 72 77 84 86 93 92 82 80 78 74 78 88 96 96 95 77 66 65 60 70 74 75 74 72
22 27 30 32 32 27 27 28 36 47 45 35 48 46 55 57 67 78 82 94 91 90 98 96 97 97 86 76 77 76 73 84 94 95 98 95 81 79 79 73 85 87 81 63
35 35 33 36 36 33 35 36 37 48 56 48 53 53 59 62 60 64 72 84 86 82 97 95 97 86 83 88 86 77 83 89 92 92 87 78 79 72 61 51 53 67 72 70
48 49 45 51 41 40 39 41 48 60 71 55 51 51 58 63 70 74 65 60 69 74 80 94 94 91 93 87 87 94 87 90 95 80 74 82 72 60 51 46 49 53 60 66
63 63 63 59 53 45 46 56 62 78 85 78 44 55 53 58 60 60 60 55 64 68 71 72 78 76 71 85 85 80 79 92 94 97 89 73 54 46 44 42 42 43 47 56
77 88 73 58 54 60 72 66 66 75 86 71 53 52 42 48 52 53 54 55 61 69 75 75 77 76 88 81 82 86 84 88 98 91 67 53 45 41 36 38 40 43 49 56
78 88 71 58 73 78 73 70 72 67 80 85 75 61 50 54 51 52 48 50 68 83 90 85 82 77 92 95 87 74 72 65 66 54 44 39 37 37 36 35 36 36 40 51
90 92 74 87 86 69 64 65 71 81 87 86 83 71 60 69 70 60 60 66 72 79 80 79 85 92 93 89 83 67 70 56 56 53 50 43 40 41 43 43 43 40 44 52
96 86 91 88 68 64 59 51 47 56 69 78 84 71 66 79 86 95 84 79 89 96 97 94 91 91 89 82 71 74 60 53 50 44 44 49 48 53 64 63 55 45 46 53
84 81 64 61 59 53 47 47 54 63 75 75 71 67 71 82 88 91 97 97 97 92 91 90 91 88 86 80 84 70 55 56 55 48 49 62 76 76 80 68 55 49 51 52
42 54 61 57 53 51 56 60 70 73 71 70 64 62 65 65 73 84 98 99 97 98 96 98 97 85 71 74 70 76 77 67 60 61 80 89 86 78 71 64 64 60 58 56
70 71 64 74 84 77 85 88 82 82 81 78 74 76 79 78 87 92 88 98 92 95 93 91 88 88 93 92 87 82 81 77 89 96 92 93 93 82 78 76 65 61 60 62
83 92 95 98 97 95 97 93 91 93 92 90 95 92 92 91 92 98 97 92 82 75 79 81 79 85 89 93 89 84 83 84 84 91 88 88 85 82 86 88 86 83 75 75
91 93 96 89 89 97 98 96 94 96 96 96 99 98 97 94 94 97 90 76 67 59 69 71 92 92 84 83 81 82 81 83 89 88 80 82 88 87 82 73 72 69 69 81
90 94 94 97 97 97 97 93 90 93 98 96 92 98 97 92 93 86 80 64 66 65 64 82 97 94 82 79 79 77 76 79 82 85 83 75 78 84 92 93 91 86 82 74
92 93 92 95 94 95 98 95 93 95 90 87 93 89 84 84 77 72 65 66 66 64 86 96 90 83 82 80 80 78 74 71 72 72 77 76 77 78 80 85 90 96 91 90
88 89 89 86 82 82 79 80 84 82 84 84 83 93 90 83 74 78 74 74 80 96 97 95 84 78 77 83 83 83 80 78 75 77 76 73 74 77 76 74 82 85 86 89
71 69 65 62 62 62 64 66 71 74 71 79 82 92 91 90 95 97 93 98 98 98 94 92 83 79 79 86 87 86 86 84 84 82 82 80 75 73 75 74 68 64 66 67